Regional Weather Roundup
Issued by NWS

Home | Current Version | Previous Version | Graphics & Text | Print | Product List | Glossary On
Versions: 1 2 3 4 5 6 7 8 9 10 11 12 13 14 15 16 17 18 19 20 21 22 23 24 25 26 27 28 29 30 31 32 33 34 35 36 37 38 39 40 41 42 43 44 45 46 47 48 49 50
000
ASUS43 KMKX 260614
RWRWI

WISCONSIN REGIONAL WEATHER ROUNDUP
NATIONAL WEATHER SERVICE MILWAUKEE/SULLIVAN WI
100 AM CDT TUE MAY 26 2015

NOTE: "FAIR" INDICATES FEW OR NO CLOUDS BELOW 12,000 FEET WITH NO
SIGNIFICANT WEATHER AND/OR OBSTRUCTIONS TO VISIBILITY.

WIZ001-002-006>008-014>016-023>028-260700-
NORTHWEST WISCONSIN

CITY           SKY/WX    TMP DP  RH WIND       PRES   REMARKS
SUPERIOR ARPT  FOG       46  46 100 CALM      29.81R VSB 1
6HR MIN TEMP:  45; 6HR MAX TEMP:  46; 6HR PCP:  0.03;

ASHLAND        CLOUDY    50  50 100 CALM      29.80R FOG
6HR MIN TEMP:  49; 6HR MAX TEMP:  54;

HAYWARD        PTCLDY    55  53  93 CALM      29.78R
6HR MIN TEMP:  54; 6HR MAX TEMP:  66;

SIREN          CLEAR     55  55  97 CALM      29.77F FOG
6HR MIN TEMP:  55; 6HR MAX TEMP:  67;

CUMBERLAND     FOG       55  54  94 CALM      29.79R VSB 1/4
RICE LAKE      PTCLDY    59  57  94 SE3       29.79S
6HR MIN TEMP:  59; 6HR MAX TEMP:  68;

CHETEK         PTCLDY    59  59 100 SE3       29.79S FOG
6HR MIN TEMP:  59; 6HR MAX TEMP:  68; 6HR PCP:  0.02;

LADYSMITH      MOCLDY    62  61  96 S3        29.81S
6HR MIN TEMP:  60; 6HR MAX TEMP:  67;

EAU CLAIRE     FOG       58  57  97 CALM      29.79R VSB 1/2
6HR MIN TEMP:  57; 6HR MAX TEMP:  66; 6HR PCP: TRACE;

MENOMONIE        N/A     59  58  96 SE3       29.79R FOG
6HR MIN TEMP:  59; 6HR MAX TEMP:  71; 6HR PCP:  0.01;

NEW RICHMOND   PTCLDY    61  61 100 CALM      29.79S
6HR MIN TEMP:  61; 6HR MAX TEMP:  70;

OSCEOLA        PTCLDY    58  58 100 SW6       29.81S
6HR MIN TEMP:  55; 6HR MAX TEMP:  70;

$$

WIZ003>005-009-010-017-018-260700-
NORTH CENTRAL WISCONSIN

CITY           SKY/WX    TMP DP  RH WIND       PRES   REMARKS
MANITOWISH WTR PTCLDY    58  58 100 SW7       29.80R
6HR MIN TEMP:  57; 6HR MAX TEMP:  64;

ARBOR VITAE    MOCLDY    62  60  93 SW5       29.81S
6HR MIN TEMP:  59; 6HR MAX TEMP:  67;

WOODRUFF       MOCLDY    62  60  93 SW5       29.81S
6HR MIN TEMP:  59; 6HR MAX TEMP:  67;

RHINELANDER    MOCLDY    61  59  93 SW5       29.82S
6HR MIN TEMP:  60; 6HR MAX TEMP:  69; 6HR PCP:  0.03;

EAGLE RIVER    LGT RAIN  60  60  99 SW5       29.81S
6HR MIN TEMP:  58; 6HR MAX TEMP:  67;

LAND O LAKES   MOCLDY    60  59  94 SW3       29.81S
6HR MIN TEMP:  58; 6HR MAX TEMP:  66;

PHILLIPS       MOCLDY    60  60  98 CALM      29.80S
6HR MIN TEMP:  59; 6HR MAX TEMP:  66;

TOMAHAWK       PTCLDY    58  57  96 CALM      29.82F FOG
6HR MIN TEMP:  58; 6HR MAX TEMP:  68;

MEDFORD        CLEAR     57  57  99 S5        29.82S
6HR MIN TEMP:  57; 6HR MAX TEMP:  67;

MERRILL        PTCLDY    56  56 100 CALM      29.84R FOG
$$

WIZ029-030-035-036-043>047-260700-
CENTRAL WISCONSIN

CITY           SKY/WX    TMP DP  RH WIND       PRES   REMARKS
WAUSAU         CLEAR     61  60  97 S6        29.82S
6HR MIN TEMP:  58; 6HR MAX TEMP:  72;

MOSINEE        MOCLDY    59  59 100 S6        29.84S
MARSHFIELD     PTCLDY    62  58  86 S7        29.82F
6HR MIN TEMP:  60; 6HR MAX TEMP:  69;

STEVENS POINT  PTCLDY    61  59  95 S3        29.84F
6HR MIN TEMP:  59; 6HR MAX TEMP:  64;

WAUPACA        PTCLDY    65  64  96 S3        29.84F
6HR MIN TEMP:  62; 6HR MAX TEMP:  71; 6HR PCP:  0.23;

WAUTOMA        CLEAR     67  63  87 S6        29.85F
6HR MIN TEMP:  63; 6HR MAX TEMP:  74;

WISC RAPIDS    CLEAR     64  60  87 S5        29.84S
6HR MIN TEMP:  60; 6HR MAX TEMP:  66; 6HR PCP: TRACE;

CAMP DOUGLAS   PTCLDY    68  68 100 S10G22    29.83S
6HR MIN TEMP:  59; 6HR MAX TEMP:  72; 6HR PCP:  0.09;

$$

WIZ011>013-019>022-031-037>040-048>050-260700-
NORTHEAST WISCONSIN

CITY           SKY/WX    TMP DP  RH WIND       PRES   REMARKS
ANTIGO         PTCLDY    58  57  98 SW7       29.84S
SHAWANO        PTCLDY    62  60  93 CALM      29.84S
6HR MIN TEMP:  62; 6HR MAX TEMP:  76; 6HR PCP:  0.08;

OCONTO         PTCLDY    61  61 100 CALM      29.83S
6HR MIN TEMP:  61; 6HR MAX TEMP:  75; 6HR PCP:  0.01;

STURGEON BAY   PTCLDY    64  59  82 S9        29.87S
6HR MIN TEMP:  63; 6HR MAX TEMP:  73;

GREEN BAY      MOCLDY    68  61  78 SW9       29.85S
6HR MIN TEMP:  63; 6HR MAX TEMP:  75; 6HR PCP: TRACE;

MANITOWOC      PTCLDY    68  61  78 SW8       29.87S
6HR MIN TEMP:  63; 6HR MAX TEMP:  76;

APPLETON       PTCLDY    66  59  77 SW12      29.86S
CLINTONVILLE   MOCLDY    59  59 100 CALM      29.84S
OSHKOSH        PTCLDY    66  59  78 S9        29.86S
6HR MIN TEMP:  66; 6HR MAX TEMP:  76;

$$

WIZ032>034-041-042-053>061-260700-
SOUTHWEST WISCONSIN

CITY           SKY/WX    TMP DP  RH WIND       PRES   REMARKS
LA CROSSE      CLOUDY    69  59  70 S9        29.82R
6HR MIN TEMP:  66; 6HR MAX TEMP:  74;

SPARTA         LGT RAIN  67  57  70 SW9G17    29.84R
6HR MIN TEMP:  59; 6HR MAX TEMP:  69;

VIROQUA        CLOUDY    63  63 100 S7        29.86S
6HR MIN TEMP:  63; 6HR MAX TEMP:  75;

BOSCOBEL       PTCLDY    67  62  84 W3        29.86R
6HR MIN TEMP:  67; 6HR MAX TEMP:  79;

PRAIRIE DU CHI PTCLDY    69  62  77 SE3       29.84S
6HR MIN TEMP:  69; 6HR MAX TEMP:  76;

PLATTEVILLE    CLEAR     65  62  88 SE6       29.88S
6HR MIN TEMP:  65; 6HR MAX TEMP:  74;

$$

WIZ056-057-062-063-064-067-068-260700-
SOUTH CENTRAL WISCONSIN

CITY           SKY/WX    TMP DP  RH WIND       PRES   REMARKS
REEDSBURG      CLEAR     67  62  82 S9        29.86R
6HR MIN TEMP:  67; 6HR MAX TEMP:  75;

BARABOO/DELLS  CLEAR     67  59  75 SW9       29.86S
6HR MIN TEMP:  67; 6HR MAX TEMP:  75;

LONE ROCK      CLEAR     68  61  78 S6        29.87R
6HR MIN TEMP:  67; 6HR MAX TEMP:  77;

MINERAL POINT  CLEAR     64  61  88 SE6       29.89R
MADISON        CLEAR     67  59  75 S5        29.87F
6HR MIN TEMP:  67; 6HR MAX TEMP:  76;

MIDDLETON      CLEAR     67  59  75 SW6       29.88S
6HR MIN TEMP:  67; 6HR MAX TEMP:  77;

WATERTOWN      CLEAR     65  64  94 S3        29.89R
6HR MIN TEMP:  65; 6HR MAX TEMP:  75;

MONROE         CLEAR     64  61  88 S9        29.90R
JANESVILLE     CLEAR     64  59  82 CALM      29.90S
$$

WIZ051-052-058>065-066-070>072-260700-
SOUTHEAST WISCONSIN

CITY           SKY/WX    TMP DP  RH WIND       PRES   REMARKS
MILWAUKEE      PTCLDY    67  59  75 SW7       29.90F
6HR MIN TEMP:  67; 6HR MAX TEMP:  77;

WAUKESHA       PTCLDY    64  57  77 S3        29.92S
MILWAUKEE/TIMM PTCLDY    68  57  68 S6        29.91S
RACINE         PTCLDY    70  59  68 S12       29.92F
6HR MIN TEMP:  70; 6HR MAX TEMP:  77;

BURLINGTON     PTCLDY    59  57  93 SW3       29.92S
6HR MIN TEMP:  59; 6HR MAX TEMP:  75;

KENOSHA        PTCLDY    69  60  73 S8        29.92F
6HR MIN TEMP:  68; 6HR MAX TEMP:  77;

FOND DU LAC    PTCLDY    68  59  73 S10       29.87F
6HR MIN TEMP:  68; 6HR MAX TEMP:  76;

SHEBOYGAN      PTCLDY    65  60  84 S9        29.88F
6HR MIN TEMP:  65; 6HR MAX TEMP:  76;

WEST BEND      PTCLDY    68  59  73 S7        29.90S
JUNEAU         CLEAR     67  60  80 S10       29.89F
6HR MIN TEMP:  67; 6HR MAX TEMP:  75;

$$

LSZ147-162-260700-
LAKE SUPERIOR

STATION/POSITION TIME  TEMP    WIND        PRES    WAVE
                       AIR SEA DIR/SP/G            HT/PER
                 (UTC) (F)     (DEG/KT/KT) (MB)    (FT/S)
W MID LAKE BUOY  0550   39 36  300/  6/  6 1088.0R   2/ 4
DEVILS ISLAND    0600   45     250/  3/  4   N/A
PORT WING        0540   45     310/  2/  3   N/A
SAXON HARBOR     0540   49        CALM       N/A
$$

LMZ867-665-643>646-260700-
LAKE MICHIGAN

STATION/POSITION TIME  TEMP    WIND        PRES    WAVE
                       AIR SEA DIR/SP/G            HT/PER


USA.gov is the U.S. government's official web portal to all federal, state and local government web resources and services.